TimeMDT,TemperatureF,Dew PointF,Humidity,Sea Level PressureIn,VisibilityMPH,Wind Direction,Wind SpeedMPH,Gust SpeedMPH,PrecipitationIn,Events,Conditions,WindDirDegrees,DateUTC
12:51 AM,62.1,46.9,58,29.88,10.0,Calm,Calm,-,N/A,,Clear,0,2013-08-09 06:51:00
1:51 AM,61.0,46.9,60,29.87,10.0,North,5.8,-,N/A,,Clear,360,2013-08-09 07:51:00
2:51 AM,55.9,46.9,72,29.90,10.0,North,3.5,-,N/A,,Clear,350,2013-08-09 08:51:00
3:51 AM,55.9,46.9,72,29.89,10.0,West,8.1,-,N/A,,Clear,260,2013-08-09 09:51:00
4:51 AM,53.1,46.0,77,29.90,10.0,Calm,Calm,-,N/A,,Clear,0,2013-08-09 10:51:00
5:51 AM,52.0,45.0,77,29.92,10.0,Calm,Calm,-,N/A,,Clear,0,2013-08-09 11:51:00
6:51 AM,50.0,45.0,83,29.94,10.0,NW,4.6,-,N/A,,Clear,320,2013-08-09 12:51:00
7:51 AM,55.9,46.9,72,29.94,10.0,Calm,Calm,-,N/A,,Clear,0,2013-08-09 13:51:00
8:51 AM,66.0,48.0,52,29.94,10.0,Calm,Calm,-,N/A,,Clear,0,2013-08-09 14:51:00
9:51 AM,70.0,46.9,44,29.95,10.0,North,4.6,-,N/A,,Clear,10,2013-08-09 15:51:00
10:51 AM,75.9,48.9,38,29.93,10.0,North,6.9,-,N/A,,Clear,360,2013-08-09 16:51:00
11:51 AM,81.0,43.0,26,29.92,10.0,ENE,3.5,-,N/A,,Clear,70,2013-08-09 17:51:00
12:51 PM,87.1,39.0,18,29.90,10.0,Calm,Calm,-,N/A,,Clear,0,2013-08-09 18:51:00
1:51 PM,88.0,28.9,12,29.88,10.0,Variable,5.8,-,N/A,,Clear,0,2013-08-09 19:51:00
2:51 PM,89.1,30.0,12,29.86,10.0,Variable,4.6,-,N/A,,Clear,0,2013-08-09 20:51:00
3:51 PM,90.0,28.9,11,29.84,10.0,WNW,9.2,-,N/A,,Clear,300,2013-08-09 21:51:00
4:51 PM,90.0,26.1,10,29.83,10.0,Calm,Calm,-,N/A,,Clear,0,2013-08-09 22:51:00
5:45 PM,86.0,35.6,17,30.00,10.0,South,17.3,31.1,N/A,,Clear,180,2013-08-09 23:45:00
5:51 PM,87.1,36.0,16,29.86,10.0,South,21.9,27.6,N/A,,Clear,170,2013-08-09 23:51:00
6:51 PM,84.9,39.9,20,29.86,10.0,SSW,15.0,-,N/A,,Clear,200,2013-08-10 00:51:00
7:51 PM,82.9,41.0,23,29.85,10.0,SSW,13.8,-,N/A,,Clear,200,2013-08-10 01:51:00
8:51 PM,78.1,39.0,25,29.85,10.0,South,12.7,-,N/A,,Clear,190,2013-08-10 02:51:00
9:51 PM,75.9,37.9,25,29.87,10.0,South,11.5,-,N/A,,Clear,190,2013-08-10 03:51:00
10:51 PM,73.9,37.9,27,29.87,10.0,South,9.2,-,N/A,,Clear,180,2013-08-10 04:51:00
11:51 PM,73.9,36.0,25,29.86,10.0,South,12.7,-,N/A,,Clear,170,2013-08-10 05:51:00